Year,Month,Day,Hour,Minute,Value (Times are PST for temperature in C)
2017,09,03,00,00,17.80
2017,09,03,00,01,17.80
2017,09,03,00,02,17.80
2017,09,03,00,03,17.80
2017,09,03,00,04,17.80
2017,09,03,00,05,17.80
2017,09,03,00,06,17.80
2017,09,03,00,07,17.80
2017,09,03,00,08,17.80
2017,09,03,00,09,17.70
2017,09,03,00,10,17.70
2017,09,03,00,11,17.70
2017,09,03,00,12,17.70
2017,09,03,00,13,17.70
2017,09,03,00,14,17.70
2017,09,03,00,15,17.70
2017,09,03,00,16,17.70
2017,09,03,00,17,17.70
2017,09,03,00,18,17.70
2017,09,03,00,19,17.70
2017,09,03,00,20,17.70
2017,09,03,00,21,17.60
2017,09,03,00,22,17.60
2017,09,03,00,23,17.60
2017,09,03,00,24,17.60
2017,09,03,00,25,17.60
2017,09,03,00,26,17.60
2017,09,03,00,27,17.60
2017,09,03,00,28,17.60
2017,09,03,00,29,17.60
2017,09,03,00,30,17.50
2017,09,03,00,31,17.50
2017,09,03,00,32,17.50
2017,09,03,00,33,17.50
2017,09,03,00,34,17.40
2017,09,03,00,35,17.40
2017,09,03,00,36,17.40
2017,09,03,00,37,17.40
2017,09,03,00,38,17.30
2017,09,03,00,39,17.30
2017,09,03,00,40,17.30
2017,09,03,00,41,17.30
2017,09,03,00,42,17.30
2017,09,03,00,43,17.30
2017,09,03,00,44,17.30
2017,09,03,00,45,17.30
2017,09,03,00,46,17.30
2017,09,03,00,47,17.30
2017,09,03,00,48,17.30
2017,09,03,00,49,17.30
2017,09,03,00,50,17.30
2017,09,03,00,51,17.20
2017,09,03,00,52,17.20
2017,09,03,00,53,17.20
2017,09,03,00,54,17.20
2017,09,03,00,55,17.20
2017,09,03,00,56,17.20
2017,09,03,00,57,17.20
2017,09,03,00,58,17.20
2017,09,03,00,59,17.20
2017,09,03,01,00,17.20
2017,09,03,01,01,17.20
2017,09,03,01,02,17.20
2017,09,03,01,03,17.20
2017,09,03,01,04,17.20
2017,09,03,01,05,17.20
2017,09,03,01,06,17.20
2017,09,03,01,07,17.20
2017,09,03,01,08,17.20
2017,09,03,01,09,17.20
2017,09,03,01,10,17.20
2017,09,03,01,11,17.10
2017,09,03,01,12,17.10
2017,09,03,01,13,17.10
2017,09,03,01,14,17.10
2017,09,03,01,15,17.10
2017,09,03,01,16,17.10
2017,09,03,01,17,17.00
2017,09,03,01,18,17.00
2017,09,03,01,19,17.00
2017,09,03,01,20,17.00
2017,09,03,01,21,17.00
2017,09,03,01,22,16.90
2017,09,03,01,23,16.90
2017,09,03,01,24,16.90
2017,09,03,01,25,16.90
2017,09,03,01,26,16.90
2017,09,03,01,27,16.90
2017,09,03,01,28,16.80
2017,09,03,01,29,16.80
2017,09,03,01,30,16.80
2017,09,03,01,31,16.80
2017,09,03,01,32,16.80
2017,09,03,01,33,16.80
2017,09,03,01,34,16.80
2017,09,03,01,35,16.80
2017,09,03,01,36,16.80
2017,09,03,01,37,16.80
2017,09,03,01,38,16.80
2017,09,03,01,39,16.80
2017,09,03,01,40,16.80
2017,09,03,01,41,16.80
2017,09,03,01,42,16.80
2017,09,03,01,43,16.90
2017,09,03,01,44,16.90
2017,09,03,01,45,17.00
2017,09,03,01,46,17.00
2017,09,03,01,47,17.10
2017,09,03,01,48,17.10
2017,09,03,01,49,17.10
2017,09,03,01,50,17.10
2017,09,03,01,51,17.10
2017,09,03,01,52,17.10
2017,09,03,01,53,17.10
2017,09,03,01,54,17.10
2017,09,03,01,55,17.00
2017,09,03,01,56,17.00
2017,09,03,01,57,17.00
2017,09,03,01,58,16.90
2017,09,03,01,59,16.90
2017,09,03,02,00,16.80
2017,09,03,02,01,16.80
2017,09,03,02,02,16.70
2017,09,03,02,03,16.70
2017,09,03,02,04,16.70
2017,09,03,02,05,16.70
2017,09,03,02,06,16.70
2017,09,03,02,07,16.60
2017,09,03,02,08,16.60
2017,09,03,02,09,16.60
2017,09,03,02,10,16.60
2017,09,03,02,11,16.60
2017,09,03,02,12,16.60
2017,09,03,02,13,16.60
2017,09,03,02,14,16.60
2017,09,03,02,15,16.60
2017,09,03,02,16,16.60
2017,09,03,02,17,16.60
2017,09,03,02,18,16.60
2017,09,03,02,19,16.60
2017,09,03,02,20,16.60
2017,09,03,02,21,16.60
2017,09,03,02,22,16.60
2017,09,03,02,23,16.60
2017,09,03,02,24,16.60
2017,09,03,02,25,16.60
2017,09,03,02,26,16.50
2017,09,03,02,27,16.50
2017,09,03,02,28,16.50
2017,09,03,02,29,16.40
2017,09,03,02,30,16.40
2017,09,03,02,31,16.40
2017,09,03,02,32,16.40
2017,09,03,02,33,16.40
2017,09,03,02,34,16.40
2017,09,03,02,35,16.40
2017,09,03,02,36,16.40
2017,09,03,02,37,16.40
2017,09,03,02,38,16.50
2017,09,03,02,39,16.50
2017,09,03,02,40,16.50
2017,09,03,02,41,16.60
2017,09,03,02,42,16.60
2017,09,03,02,43,16.60
2017,09,03,02,44,16.60
2017,09,03,02,45,16.70
2017,09,03,02,46,16.70
2017,09,03,02,47,16.70
2017,09,03,02,48,16.70
2017,09,03,02,49,16.70
2017,09,03,02,50,16.70
2017,09,03,02,51,16.70
2017,09,03,02,52,16.70
2017,09,03,02,53,16.70
2017,09,03,02,54,16.70
2017,09,03,02,55,16.70
2017,09,03,02,56,16.70
2017,09,03,02,57,16.60
2017,09,03,02,58,16.60
2017,09,03,02,59,16.60
2017,09,03,03,00,16.60
2017,09,03,03,01,16.60
2017,09,03,03,02,16.60
2017,09,03,03,03,16.60
2017,09,03,03,04,16.50
2017,09,03,03,05,16.50
2017,09,03,03,06,16.50
2017,09,03,03,07,16.50
2017,09,03,03,08,16.60
2017,09,03,03,09,16.60
2017,09,03,03,10,16.60
2017,09,03,03,11,16.50
2017,09,03,03,12,16.50
2017,09,03,03,13,16.50
2017,09,03,03,14,16.50
2017,09,03,03,15,16.40
2017,09,03,03,16,16.40
2017,09,03,03,17,16.40
2017,09,03,03,18,16.40
2017,09,03,03,19,16.40
2017,09,03,03,20,16.40
2017,09,03,03,21,16.30
2017,09,03,03,22,16.30
2017,09,03,03,23,16.30
2017,09,03,03,24,16.30
2017,09,03,03,25,16.30
2017,09,03,03,26,16.30
2017,09,03,03,27,16.30
2017,09,03,03,28,16.20
2017,09,03,03,29,16.20
2017,09,03,03,30,16.20
2017,09,03,03,31,16.20
2017,09,03,03,32,16.20
2017,09,03,03,33,16.10
2017,09,03,03,34,16.10
2017,09,03,03,35,16.10
2017,09,03,03,36,16.00
2017,09,03,03,37,16.00
2017,09,03,03,38,16.00
2017,09,03,03,39,15.90
2017,09,03,03,40,15.90
2017,09,03,03,41,15.90
2017,09,03,03,42,15.90
2017,09,03,03,43,15.90
2017,09,03,03,44,15.80
2017,09,03,03,45,15.80
2017,09,03,03,46,15.80
2017,09,03,03,47,15.80
2017,09,03,03,48,15.80
2017,09,03,03,49,15.80
2017,09,03,03,50,15.70
2017,09,03,03,51,15.70
2017,09,03,03,52,15.70
2017,09,03,03,53,15.70
2017,09,03,03,54,15.70
2017,09,03,03,55,15.70
2017,09,03,03,56,15.70
2017,09,03,03,57,15.60
2017,09,03,03,58,15.60
2017,09,03,03,59,15.60
2017,09,03,04,00,15.60
2017,09,03,04,01,15.60
2017,09,03,04,02,15.50
2017,09,03,04,03,15.50
2017,09,03,04,04,15.50
2017,09,03,04,05,15.50
2017,09,03,04,06,15.40
2017,09,03,04,07,15.40
2017,09,03,04,08,15.40
2017,09,03,04,09,15.40
2017,09,03,04,10,15.40
2017,09,03,04,11,15.40
2017,09,03,04,12,15.40
2017,09,03,04,13,15.40
2017,09,03,04,14,15.40
2017,09,03,04,15,15.40
2017,09,03,04,16,15.50
2017,09,03,04,17,15.50
2017,09,03,04,18,15.50
2017,09,03,04,19,15.50
2017,09,03,04,20,15.50
2017,09,03,04,21,15.50
2017,09,03,04,22,15.60
2017,09,03,04,23,15.60
2017,09,03,04,24,15.60
2017,09,03,04,25,15.60
2017,09,03,04,26,15.60
2017,09,03,04,27,15.60
2017,09,03,04,28,15.60
2017,09,03,04,29,15.60
2017,09,03,04,30,15.60
2017,09,03,04,31,15.60
2017,09,03,04,32,15.60
2017,09,03,04,33,15.60
2017,09,03,04,34,15.60
2017,09,03,04,35,15.60
2017,09,03,04,36,15.60
2017,09,03,04,37,15.60
2017,09,03,04,38,15.60
2017,09,03,04,39,15.60
2017,09,03,04,40,15.60
2017,09,03,04,41,15.60
2017,09,03,04,42,15.60
2017,09,03,04,43,15.60
2017,09,03,04,44,15.60
2017,09,03,04,45,15.60
2017,09,03,04,46,15.50
2017,09,03,04,47,15.50
2017,09,03,04,48,15.50
2017,09,03,04,49,15.50
2017,09,03,04,50,15.50
2017,09,03,04,51,15.50
2017,09,03,04,52,15.50
2017,09,03,04,53,15.40
2017,09,03,04,54,15.40
2017,09,03,04,55,15.40
2017,09,03,04,56,15.40
2017,09,03,04,57,15.40
2017,09,03,04,58,15.40
2017,09,03,04,59,15.30
2017,09,03,05,00,15.30
2017,09,03,05,01,15.30
2017,09,03,05,02,15.30
2017,09,03,05,03,15.30
2017,09,03,05,04,15.30
2017,09,03,05,05,15.20
2017,09,03,05,06,15.20
2017,09,03,05,07,15.20
2017,09,03,05,08,15.20
2017,09,03,05,09,15.20
2017,09,03,05,10,15.20
2017,09,03,05,11,15.10
2017,09,03,05,12,15.10
2017,09,03,05,13,15.10
2017,09,03,05,14,15.00
2017,09,03,05,15,15.00
2017,09,03,05,16,15.00
2017,09,03,05,17,14.90
2017,09,03,05,18,14.90
2017,09,03,05,19,14.90
2017,09,03,05,20,14.80
2017,09,03,05,21,14.80
2017,09,03,05,22,14.80
2017,09,03,05,23,14.80
2017,09,03,05,24,14.80
2017,09,03,05,25,14.80
2017,09,03,05,26,14.80
2017,09,03,05,27,14.80
2017,09,03,05,28,14.80
2017,09,03,05,29,14.80
2017,09,03,05,30,14.80
2017,09,03,05,31,14.80
2017,09,03,05,32,14.70
2017,09,03,05,33,14.70
2017,09,03,05,34,14.70
2017,09,03,05,35,14.70
2017,09,03,05,36,14.70
2017,09,03,05,37,14.70
2017,09,03,05,38,14.70
2017,09,03,05,39,14.70
2017,09,03,05,40,14.70
2017,09,03,05,41,14.70
2017,09,03,05,42,14.70
2017,09,03,05,43,14.70
2017,09,03,05,44,14.70
2017,09,03,05,45,14.70
2017,09,03,05,46,14.70
2017,09,03,05,47,14.60
2017,09,03,05,48,14.60
2017,09,03,05,49,14.60
2017,09,03,05,50,14.60
2017,09,03,05,51,14.60
2017,09,03,05,52,14.60
2017,09,03,05,53,14.60
2017,09,03,05,54,14.60
2017,09,03,05,55,14.60
2017,09,03,05,56,14.60
2017,09,03,05,57,14.60
2017,09,03,05,58,14.60
2017,09,03,05,59,14.60
2017,09,03,06,00,14.60
2017,09,03,06,01,14.60
2017,09,03,06,02,14.60
2017,09,03,06,03,14.60
2017,09,03,06,04,14.60
2017,09,03,06,05,14.60
2017,09,03,06,06,14.60
2017,09,03,06,07,14.50
2017,09,03,06,08,14.50
2017,09,03,06,09,14.50
2017,09,03,06,10,14.50
2017,09,03,06,11,14.50
2017,09,03,06,12,14.50
2017,09,03,06,13,14.50
2017,09,03,06,14,14.50
2017,09,03,06,15,14.50
2017,09,03,06,16,14.50
2017,09,03,06,17,14.50
2017,09,03,06,18,14.50
2017,09,03,06,19,14.50
2017,09,03,06,20,14.60
2017,09,03,06,21,14.60
2017,09,03,06,22,14.60
2017,09,03,06,23,14.60
2017,09,03,06,24,14.60
2017,09,03,06,25,14.60
2017,09,03,06,26,14.60
2017,09,03,06,27,14.60
2017,09,03,06,28,14.50
2017,09,03,06,29,14.50
2017,09,03,06,30,14.50
2017,09,03,06,31,14.40
2017,09,03,06,32,14.40
2017,09,03,06,33,14.40
2017,09,03,06,34,14.40
2017,09,03,06,35,14.40
2017,09,03,06,36,14.30
2017,09,03,06,37,14.30
2017,09,03,06,38,14.30
2017,09,03,06,39,14.30
2017,09,03,06,40,14.30
2017,09,03,06,41,14.30
2017,09,03,06,42,14.30
2017,09,03,06,43,14.30
2017,09,03,06,44,14.30
2017,09,03,06,45,14.30
2017,09,03,06,46,14.30
2017,09,03,06,47,14.30
2017,09,03,06,48,14.30
2017,09,03,06,49,14.30
2017,09,03,06,50,14.30
2017,09,03,06,51,14.30
2017,09,03,06,52,14.30
2017,09,03,06,53,14.30
2017,09,03,06,54,14.30
2017,09,03,06,55,14.30
2017,09,03,06,56,14.30
2017,09,03,06,57,14.30
2017,09,03,06,58,14.30
2017,09,03,06,59,14.30
2017,09,03,07,00,14.30
2017,09,03,07,01,14.30
2017,09,03,07,02,14.30
2017,09,03,07,03,14.30
2017,09,03,07,04,14.30
2017,09,03,07,05,14.30
2017,09,03,07,06,14.30
2017,09,03,07,07,14.30
2017,09,03,07,08,14.30
2017,09,03,07,09,14.30
2017,09,03,07,10,14.30
2017,09,03,07,11,14.30
2017,09,03,07,12,14.30
2017,09,03,07,13,14.30
2017,09,03,07,14,14.30
2017,09,03,07,15,14.30
2017,09,03,07,16,14.30
2017,09,03,07,17,14.40
2017,09,03,07,18,14.40
2017,09,03,07,19,14.40
2017,09,03,07,20,14.40
2017,09,03,07,21,14.50
2017,09,03,07,22,14.50
2017,09,03,07,23,14.60
2017,09,03,07,24,14.60
2017,09,03,07,25,14.60
2017,09,03,07,26,14.70
2017,09,03,07,27,14.70
2017,09,03,07,28,14.70
2017,09,03,07,29,14.70
2017,09,03,07,30,14.70
2017,09,03,07,31,14.70
2017,09,03,07,32,14.70
2017,09,03,07,33,14.80
2017,09,03,07,34,14.80
2017,09,03,07,35,14.90
2017,09,03,07,36,14.90
2017,09,03,07,37,15.00
2017,09,03,07,38,15.00
2017,09,03,07,39,15.10
2017,09,03,07,40,15.10
2017,09,03,07,41,15.20
2017,09,03,07,42,15.20
2017,09,03,07,43,15.30
2017,09,03,07,44,15.30
2017,09,03,07,45,15.40
2017,09,03,07,46,15.50
2017,09,03,07,47,15.50
2017,09,03,07,48,15.60
2017,09,03,07,49,15.70
2017,09,03,07,50,15.70
2017,09,03,07,51,15.70
2017,09,03,07,52,15.80
2017,09,03,07,53,15.80
2017,09,03,07,54,15.90
2017,09,03,07,55,15.90
2017,09,03,07,56,15.90
2017,09,03,07,57,16.00
2017,09,03,07,58,16.00
2017,09,03,07,59,16.10
2017,09,03,08,00,16.10
2017,09,03,08,01,16.10
2017,09,03,08,02,16.20
2017,09,03,08,03,16.20
2017,09,03,08,04,16.20
2017,09,03,08,05,16.30
2017,09,03,08,06,16.30
2017,09,03,08,07,16.40
2017,09,03,08,08,16.40
2017,09,03,08,09,16.50
2017,09,03,08,10,16.60
2017,09,03,08,11,16.70
2017,09,03,08,12,16.80
2017,09,03,08,13,16.90
2017,09,03,08,14,17.00
2017,09,03,08,15,17.20
2017,09,03,08,16,17.30
2017,09,03,08,17,17.40
2017,09,03,08,18,17.50
2017,09,03,08,19,17.60
2017,09,03,08,20,17.70
2017,09,03,08,21,17.80
2017,09,03,08,22,18.00
2017,09,03,08,23,18.10
2017,09,03,08,24,18.20
2017,09,03,08,25,18.40
2017,09,03,08,26,18.50
2017,09,03,08,27,18.60
2017,09,03,08,28,18.80
2017,09,03,08,29,18.90
2017,09,03,08,30,19.00
2017,09,03,08,31,19.20
2017,09,03,08,32,19.30
2017,09,03,08,33,19.40
2017,09,03,08,34,19.50
2017,09,03,08,35,19.60
2017,09,03,08,36,19.70
2017,09,03,08,37,19.80
2017,09,03,08,38,19.80
2017,09,03,08,39,19.90
2017,09,03,08,40,20.00
2017,09,03,08,41,20.00
2017,09,03,08,42,20.10
2017,09,03,08,43,20.10
2017,09,03,08,44,20.20
2017,09,03,08,45,20.20
2017,09,03,08,46,20.30
2017,09,03,08,47,20.30
2017,09,03,08,48,20.30
2017,09,03,08,49,20.30
2017,09,03,08,50,20.30
2017,09,03,08,51,20.40
2017,09,03,08,52,20.40
2017,09,03,08,53,20.40
2017,09,03,08,54,20.50
2017,09,03,08,55,20.50
2017,09,03,08,56,20.60
2017,09,03,08,57,20.60
2017,09,03,08,58,20.60
2017,09,03,08,59,20.70
2017,09,03,09,00,20.70
2017,09,03,09,01,20.80
2017,09,03,09,02,20.80
2017,09,03,09,03,20.90
2017,09,03,09,04,21.00
2017,09,03,09,05,21.00
2017,09,03,09,06,21.10
2017,09,03,09,07,21.20
2017,09,03,09,08,21.20
2017,09,03,09,09,21.30
2017,09,03,09,10,21.40
2017,09,03,09,11,21.50
2017,09,03,09,12,21.50
2017,09,03,09,13,21.60
2017,09,03,09,14,21.70
2017,09,03,09,15,21.80
2017,09,03,09,16,21.90
2017,09,03,09,17,22.00
2017,09,03,09,18,22.00
2017,09,03,09,19,22.10
2017,09,03,09,20,22.10
2017,09,03,09,21,22.20
2017,09,03,09,22,22.20
2017,09,03,09,23,22.20
2017,09,03,09,24,22.30
2017,09,03,09,25,22.30
2017,09,03,09,26,22.30
2017,09,03,09,27,22.40
2017,09,03,09,28,22.40
2017,09,03,09,29,22.40
2017,09,03,09,30,22.50
2017,09,03,09,31,22.50
2017,09,03,09,32,22.50
2017,09,03,09,33,22.60
2017,09,03,09,34,22.60
2017,09,03,09,35,22.60
2017,09,03,09,36,22.60
2017,09,03,09,37,22.60
2017,09,03,09,38,22.60
2017,09,03,09,39,22.70
2017,09,03,09,40,22.70
2017,09,03,09,41,22.70
2017,09,03,09,42,22.70
2017,09,03,09,43,22.80
2017,09,03,09,44,22.80
2017,09,03,09,45,22.80
2017,09,03,09,46,22.80
2017,09,03,09,47,22.80
2017,09,03,09,48,22.80
2017,09,03,09,49,22.80
2017,09,03,09,50,22.80
2017,09,03,09,51,22.80
2017,09,03,09,52,22.80
2017,09,03,09,53,22.80
2017,09,03,09,54,22.80
2017,09,03,09,55,22.80
2017,09,03,09,56,22.90
2017,09,03,09,57,22.90
2017,09,03,09,58,23.00
2017,09,03,09,59,23.00
2017,09,03,10,00,23.00
2017,09,03,10,01,23.10
2017,09,03,10,02,23.20
2017,09,03,10,03,23.20
2017,09,03,10,04,23.20
2017,09,03,10,05,23.30
2017,09,03,10,06,23.30
2017,09,03,10,07,23.30
2017,09,03,10,08,23.30
2017,09,03,10,09,23.30
2017,09,03,10,10,23.30
2017,09,03,10,11,23.30
2017,09,03,10,12,23.30
2017,09,03,10,13,23.30
2017,09,03,10,14,23.40
2017,09,03,10,15,23.40
2017,09,03,10,16,23.40
2017,09,03,10,17,23.50
2017,09,03,10,18,23.60
2017,09,03,10,19,23.60
2017,09,03,10,20,23.70
2017,09,03,10,21,23.70
2017,09,03,10,22,23.70
2017,09,03,10,23,23.70
2017,09,03,10,24,23.70
2017,09,03,10,25,23.80
2017,09,03,10,26,23.80
2017,09,03,10,27,23.80
2017,09,03,10,28,23.80
2017,09,03,10,29,23.90
2017,09,03,10,30,23.90
2017,09,03,10,31,23.90
2017,09,03,10,32,24.00
2017,09,03,10,33,24.00
2017,09,03,10,34,24.00
2017,09,03,10,35,24.10
2017,09,03,10,36,24.10
2017,09,03,10,37,24.10
2017,09,03,10,38,24.20
2017,09,03,10,39,24.20
2017,09,03,10,40,24.20
2017,09,03,10,41,24.20
2017,09,03,10,42,24.10
2017,09,03,10,43,24.10
2017,09,03,10,44,24.10
2017,09,03,10,45,24.10
2017,09,03,10,46,24.10
2017,09,03,10,47,24.10
2017,09,03,10,48,24.10
2017,09,03,10,49,24.20
2017,09,03,10,50,24.20
2017,09,03,10,51,24.30
2017,09,03,10,52,24.30
2017,09,03,10,53,24.30
2017,09,03,10,54,24.30
2017,09,03,10,55,24.30
2017,09,03,10,56,24.40
2017,09,03,10,57,24.40
2017,09,03,10,58,24.40
2017,09,03,10,59,24.40
2017,09,03,11,00,24.40
2017,09,03,11,01,24.40
2017,09,03,11,02,24.50
2017,09,03,11,03,24.50
2017,09,03,11,04,24.50
2017,09,03,11,05,24.50
2017,09,03,11,06,24.60
2017,09,03,11,07,24.60
2017,09,03,11,08,24.60
2017,09,03,11,09,24.60
2017,09,03,11,10,24.70
2017,09,03,11,11,24.70
2017,09,03,11,12,24.70
2017,09,03,11,13,24.80
2017,09,03,11,14,24.80
2017,09,03,11,15,24.80
2017,09,03,11,16,24.80
2017,09,03,11,17,24.80
2017,09,03,11,18,24.80
2017,09,03,11,19,24.80
2017,09,03,11,20,24.80
2017,09,03,11,21,24.80
2017,09,03,11,22,24.80
2017,09,03,11,23,24.80
2017,09,03,11,24,24.90
2017,09,03,11,25,24.90
2017,09,03,11,26,24.90
2017,09,03,11,27,24.80
2017,09,03,11,28,24.80
2017,09,03,11,29,24.80
2017,09,03,11,30,24.80
2017,09,03,11,31,24.80
2017,09,03,11,32,24.80
2017,09,03,11,33,24.80
2017,09,03,11,34,24.90
2017,09,03,11,35,24.90
2017,09,03,11,36,24.90
2017,09,03,11,37,24.90
2017,09,03,11,38,25.00
2017,09,03,11,39,25.00
2017,09,03,11,40,25.00
2017,09,03,11,41,25.00
2017,09,03,11,42,25.00
2017,09,03,11,43,25.00
2017,09,03,11,44,25.00
2017,09,03,11,45,25.00
2017,09,03,11,46,25.00
2017,09,03,11,47,25.00
2017,09,03,11,48,25.10
2017,09,03,11,49,25.10
2017,09,03,11,50,25.20
2017,09,03,11,51,25.30
2017,09,03,11,52,25.30
2017,09,03,11,53,25.40
2017,09,03,11,54,25.40
2017,09,03,11,55,25.50
2017,09,03,11,56,25.50
2017,09,03,11,57,25.50
2017,09,03,11,58,25.60
2017,09,03,11,59,25.50
2017,09,03,12,00,25.50
2017,09,03,12,01,25.40
2017,09,03,12,02,25.40
2017,09,03,12,03,25.40
2017,09,03,12,04,25.40
2017,09,03,12,05,25.50
2017,09,03,12,06,25.50
2017,09,03,12,07,25.50
2017,09,03,12,08,25.50
2017,09,03,12,09,25.40
2017,09,03,12,10,25.40
2017,09,03,12,11,25.40
2017,09,03,12,12,25.40
2017,09,03,12,13,25.40
2017,09,03,12,14,25.40
2017,09,03,12,15,25.40
2017,09,03,12,16,25.40
2017,09,03,12,17,25.40
2017,09,03,12,18,25.50
2017,09,03,12,19,25.50
2017,09,03,12,20,25.60
2017,09,03,12,21,25.70
2017,09,03,12,22,25.80
2017,09,03,12,23,25.70
2017,09,03,12,24,25.70
2017,09,03,12,25,25.60
2017,09,03,12,26,25.50
2017,09,03,12,27,25.40
2017,09,03,12,28,25.40
2017,09,03,12,29,25.40
2017,09,03,12,30,25.30
2017,09,03,12,31,25.30
2017,09,03,12,32,25.30
2017,09,03,12,33,25.30
2017,09,03,12,34,25.40
2017,09,03,12,35,25.40
2017,09,03,12,36,25.40
2017,09,03,12,37,25.40
2017,09,03,12,38,25.40
2017,09,03,12,39,25.30
2017,09,03,12,40,25.30
2017,09,03,12,41,25.40
2017,09,03,12,42,25.40
2017,09,03,12,43,25.40
2017,09,03,12,44,25.40
2017,09,03,12,45,25.40
2017,09,03,12,46,25.40
2017,09,03,12,47,25.40
2017,09,03,12,48,25.40
2017,09,03,12,49,25.50
2017,09,03,12,50,25.60
2017,09,03,12,51,25.60
2017,09,03,12,52,25.70
2017,09,03,12,53,25.70
2017,09,03,12,54,25.80
2017,09,03,12,55,25.80
2017,09,03,12,56,25.90
2017,09,03,12,57,25.90
2017,09,03,12,58,25.90
2017,09,03,12,59,25.90
2017,09,03,13,00,25.80
2017,09,03,13,01,25.80
2017,09,03,13,02,25.80
2017,09,03,13,03,25.80
2017,09,03,13,04,25.70
2017,09,03,13,05,25.70
2017,09,03,13,06,25.70
2017,09,03,13,07,25.70
2017,09,03,13,08,25.80
2017,09,03,13,09,25.80
2017,09,03,13,10,25.80
2017,09,03,13,11,25.80
2017,09,03,13,12,25.80
2017,09,03,13,13,25.80
2017,09,03,13,14,25.90
2017,09,03,13,15,26.00
2017,09,03,13,16,26.00
2017,09,03,13,17,26.10
2017,09,03,13,18,26.20
2017,09,03,13,19,26.30
2017,09,03,13,20,26.40
2017,09,03,13,21,26.50
2017,09,03,13,22,26.50
2017,09,03,13,23,26.50
2017,09,03,13,24,26.60
2017,09,03,13,25,26.60
2017,09,03,13,26,26.60
2017,09,03,13,27,26.60
2017,09,03,13,28,26.60
2017,09,03,13,29,26.70
2017,09,03,13,30,26.80
2017,09,03,13,31,26.80
2017,09,03,13,32,26.80
2017,09,03,13,33,26.80
2017,09,03,13,34,26.80
2017,09,03,13,35,26.80
2017,09,03,13,36,26.80
2017,09,03,13,37,26.90
2017,09,03,13,38,26.90
2017,09,03,13,39,27.00
2017,09,03,13,40,27.00
2017,09,03,13,41,27.10
2017,09,03,13,42,27.10
2017,09,03,13,43,27.20
2017,09,03,13,44,27.30
2017,09,03,13,45,27.30
2017,09,03,13,46,27.40
2017,09,03,13,47,27.40
2017,09,03,13,48,27.30
2017,09,03,13,49,27.30
2017,09,03,13,50,27.30
2017,09,03,13,51,27.30
2017,09,03,13,52,27.30
2017,09,03,13,53,27.30
2017,09,03,13,54,27.40
2017,09,03,13,55,27.40
2017,09,03,13,56,27.40
2017,09,03,13,57,27.40
2017,09,03,13,58,27.40
2017,09,03,13,59,27.40
2017,09,03,14,00,27.50
2017,09,03,14,01,27.50
2017,09,03,14,02,27.50
2017,09,03,14,03,27.50
2017,09,03,14,04,27.60
2017,09,03,14,05,27.60
2017,09,03,14,06,27.70
2017,09,03,14,07,27.80
2017,09,03,14,08,27.80
2017,09,03,14,09,27.90
2017,09,03,14,10,27.90
2017,09,03,14,11,28.00
2017,09,03,14,12,28.10
2017,09,03,14,13,28.20
2017,09,03,14,14,28.20
2017,09,03,14,15,28.20
2017,09,03,14,16,28.20
2017,09,03,14,17,28.10
2017,09,03,14,18,28.10
2017,09,03,14,19,28.10
2017,09,03,14,20,28.20
2017,09,03,14,21,28.10
2017,09,03,14,22,28.10
2017,09,03,14,23,28.00
2017,09,03,14,24,27.90
2017,09,03,14,25,27.90
2017,09,03,14,26,28.00
2017,09,03,14,27,28.00
2017,09,03,14,28,28.10
2017,09,03,14,29,28.10
2017,09,03,14,30,28.20
2017,09,03,14,31,28.20
2017,09,03,14,32,28.20
2017,09,03,14,33,28.20
2017,09,03,14,34,28.30
2017,09,03,14,35,28.30
2017,09,03,14,36,28.30
2017,09,03,14,37,28.30
2017,09,03,14,38,28.30
2017,09,03,14,39,28.20
2017,09,03,14,40,28.20
2017,09,03,14,41,28.20
2017,09,03,14,42,28.20
2017,09,03,14,43,28.20
2017,09,03,14,44,28.20
2017,09,03,14,45,28.20
2017,09,03,14,46,28.10
2017,09,03,14,47,28.10
2017,09,03,14,48,28.10
2017,09,03,14,49,28.10
2017,09,03,14,50,28.10
2017,09,03,14,51,28.10
2017,09,03,14,52,28.20
2017,09,03,14,53,28.20
2017,09,03,14,54,28.20
2017,09,03,14,55,28.20
2017,09,03,14,56,28.30
2017,09,03,14,57,28.20
2017,09,03,14,58,28.20
2017,09,03,14,59,28.20
2017,09,03,15,00,28.20
2017,09,03,15,01,28.20
2017,09,03,15,02,28.20
2017,09,03,15,03,28.20
2017,09,03,15,04,28.20
2017,09,03,15,05,28.10
2017,09,03,15,06,28.00
2017,09,03,15,07,27.90
2017,09,03,15,08,27.80
2017,09,03,15,09,27.80
2017,09,03,15,10,27.80
2017,09,03,15,11,27.70
2017,09,03,15,12,27.70
2017,09,03,15,13,27.80
2017,09,03,15,14,27.80
2017,09,03,15,15,27.80
2017,09,03,15,16,27.80
2017,09,03,15,17,27.80
2017,09,03,15,18,27.80
2017,09,03,15,19,27.80
2017,09,03,15,20,27.90
2017,09,03,15,21,27.90
2017,09,03,15,22,27.90
2017,09,03,15,23,27.90
2017,09,03,15,24,28.00
2017,09,03,15,25,28.00
2017,09,03,15,26,28.00
2017,09,03,15,27,28.00
2017,09,03,15,28,28.10
2017,09,03,15,29,28.00
2017,09,03,15,30,28.10
2017,09,03,15,31,28.10
2017,09,03,15,32,28.20
2017,09,03,15,33,28.20
2017,09,03,15,34,28.20
2017,09,03,15,35,28.30
2017,09,03,15,36,28.30
2017,09,03,15,37,28.40
2017,09,03,15,38,28.40
2017,09,03,15,39,28.50
2017,09,03,15,40,28.60
2017,09,03,15,41,28.60
2017,09,03,15,42,28.70
2017,09,03,15,43,28.70
2017,09,03,15,44,28.80
2017,09,03,15,45,28.80
2017,09,03,15,46,28.80
2017,09,03,15,47,28.70
2017,09,03,15,48,28.70
2017,09,03,15,49,28.70
2017,09,03,15,50,28.60
2017,09,03,15,51,28.60
2017,09,03,15,52,28.50
2017,09,03,15,53,28.50
2017,09,03,15,54,28.50
2017,09,03,15,55,28.50
2017,09,03,15,56,28.60
2017,09,03,15,57,28.60
2017,09,03,15,58,28.60
2017,09,03,15,59,28.60
2017,09,03,16,00,28.60
2017,09,03,16,01,28.70
2017,09,03,16,02,28.70
2017,09,03,16,03,28.90
2017,09,03,16,04,28.90
2017,09,03,16,05,29.00
2017,09,03,16,06,29.10
2017,09,03,16,07,29.10
2017,09,03,16,08,29.20
2017,09,03,16,09,29.20
2017,09,03,16,10,29.20
2017,09,03,16,11,29.30
2017,09,03,16,12,29.30
2017,09,03,16,13,29.40
2017,09,03,16,14,29.50
2017,09,03,16,15,29.60
2017,09,03,16,16,29.80
2017,09,03,16,17,29.90
2017,09,03,16,18,30.00
2017,09,03,16,19,30.20
2017,09,03,16,20,30.30
2017,09,03,16,21,30.50
2017,09,03,16,22,30.60
2017,09,03,16,23,30.70
2017,09,03,16,24,30.80
2017,09,03,16,25,30.90
2017,09,03,16,26,30.90
2017,09,03,16,27,30.90
2017,09,03,16,28,30.90
2017,09,03,16,29,31.00
2017,09,03,16,30,31.00
2017,09,03,16,31,31.00
2017,09,03,16,32,30.90
2017,09,03,16,33,30.90
2017,09,03,16,34,30.90
2017,09,03,16,35,30.80
2017,09,03,16,36,30.90
2017,09,03,16,37,30.90
2017,09,03,16,38,31.00
2017,09,03,16,39,31.00
2017,09,03,16,40,31.00
2017,09,03,16,41,30.80
2017,09,03,16,42,30.70
2017,09,03,16,43,30.60
2017,09,03,16,44,30.50
2017,09,03,16,45,30.40
2017,09,03,16,46,30.20
2017,09,03,16,47,29.90
2017,09,03,16,48,29.60
2017,09,03,16,49,29.40
2017,09,03,16,50,29.20
2017,09,03,16,51,29.10
2017,09,03,16,52,28.90
2017,09,03,16,53,28.60
2017,09,03,16,54,28.40
2017,09,03,16,55,28.20
2017,09,03,16,56,28.00
2017,09,03,16,57,27.90
2017,09,03,16,58,27.90
2017,09,03,16,59,28.00
2017,09,03,17,00,28.00
2017,09,03,17,01,28.00
2017,09,03,17,02,28.00
2017,09,03,17,03,28.10
2017,09,03,17,04,28.20
2017,09,03,17,05,28.20
2017,09,03,17,06,28.20
2017,09,03,17,07,28.20
2017,09,03,17,08,28.20
2017,09,03,17,09,28.30
2017,09,03,17,10,28.30
2017,09,03,17,11,28.30
2017,09,03,17,12,28.40
2017,09,03,17,13,28.30
2017,09,03,17,14,28.30
2017,09,03,17,15,28.20
2017,09,03,17,16,28.20
2017,09,03,17,17,28.30
2017,09,03,17,18,28.30
2017,09,03,17,19,28.30